ONEWEB-0693, 61601

Orbit data source: Space-Track

ONEWEB-0693, 61601 is a payload satellite owned by Eut. One Web (UK) in LEO that was launched on Sun, 20 Oct 2024 UTC via an FALCON 9 launch vehicle from the Air Force Western Test Range (AFWTR). Payload-class satellites include a variety of spacecraft equipped with specific instruments for various scientific and technological missions. These include communications satellites like Starlink; space stations such as the ISS; scientific satellites like the Hubble; Earth observation satellites from companies like Planet Labs, Umbra, and HawkEye 360; GPS; miniature CubeSats for education and research; and military/defense satellites.

Loading next visibility...
Identifier
61601, 2024-188H
Orbit
LEO
Country
Flag of UKUK
Related business
Manufacturer
One Web
Mission
Operational Commercial Communications
Bus & Motor
ARROW, Unknown motor
Mass
148 kg wet, ~140 kg dry
Launch date (UTC)
2024-10-20 (2 years ago)
Launch vehicle
FALCON 9
Launch site
Air Force Western Test Range (AFWTR)
Object type
Payload
Rocket body
Debris
Shape & HBR
Trap Box + 2 Pan, 6.7 m
Radar Cross Section
3.464 m², Medium (>0.1 m² and < 1m²)

Expand to show TLE details & history
Last TLE update: 15 hours ago

TLE from 15 hours ago
0 ONEWEB-0693
1 61601U 24188H   26127.41763252  .00000023  00000-0  26205-4 0  9999
2 61601  87.9164  14.0036 0002589  73.3065 286.8351 13.17648809 80517
Epoch: 2026-05-07T10:01Z
TLE epoch observation values (Epoch: 2026-05-07T10:01:23.449Z)
Latitude
0.00001°
Longitude
-1.60817°
Altitude
1,196.045 km
Speed
7.256 km/s
True Right ascension
00h 56m 00s
True Declination
0° 00' 00"
Sunlit
Object was in daylight at epoch
Visualization orbit readout
Latitude
Unknown
Longitude
Unknown
Altitude
Unknown
Speed
Unknown
Apparent Right ascension
Unknown
Apparent Declination
Unknown
Sunlit
N/A
Visualization observer readout
Local Sidereal Time
09:23:57
Azimuth
Unknown
Elevation
Unknown
Doppler factor
Unknown
Orbital elements
Apogee altitude
1,192.782 km
Perigee altitude
1,188.863 km
Semi-major axis
7,568.96 km
Eccentricity
0.00026
Inclination
87.9164°
RAAN
14.0036°
Arg. of periapsis
73.3065°
True anomaly
286.8067°
Mean anomaly
286.8351°
Eccentric anomaly
286.8209°
Mean motion
3.29601 °/min
Orbital period
109.22 mins
BSTAR
0.000026205
Loading maneuver chart data...
Computing Atmospheric mass density...
Loading historical data...
Loading historical data...
Loading historical data...
Loading historical data...
Loading historical data...
Loading historical data...
Loading historical data...

Documentation

Showing up to 5 results
|